When you browse on this site, cookies collect data to enhance your experience and personalize the content and advertising you see.
Visit our Privacy Policy to learn more. By continuing to use the site, you agree to this use of cookies and data.
  • En España
  • Lista de países
  • Para 7 días
  • Temperatura del agua
  • El tiempo en el mapa
  • Informadores
  • user-avatar
    Iniciar sesión

    Tiempo cada hora Lezhe

    Hoy, 17 Octubre, Jueves

    Tiempo Temperatura Precipitaciones Viento Presión Humedad
    00:00 +18°C° 0 mm 1 mps 739 mmHg 65%
    01:00 +18°C° 0 mm 1 mps 739 mmHg 65%
    02:00 +18°C° 0 mm 1 mps 739 mmHg 65%
    03:00 +18°C° 0 mm 1 mps 738 mmHg 64%
    04:00 +18°C° 0 mm 1 mps 738 mmHg 64%
    05:00 +18°C° 0 mm 1 mps 738 mmHg 63%
    06:00 +18°C° 0 mm 1 mps 738 mmHg 62%
    07:00 +19°C° 0 mm 1 mps 739 mmHg 60%
    08:00 +21°C° 0 mm 1 mps 739 mmHg 54%
    09:00 +23°C° 0 mm 1 mps 739 mmHg 48%
    10:00 +23°C° 0 mm 0 mps 739 mmHg 42%
    11:00 +26°C° 0 mm 1 mps 739 mmHg 41%
    12:00 +26°C° 0 mm 1 mps 739 mmHg 41%
    13:00 +27°C° 0 mm 2 mps 739 mmHg 40%
    14:00 +26°C° 0 mm 2 mps 739 mmHg 46%
    15:00 +25°C° 0 mm 2 mps 738 mmHg 52%
    16:00 +23°C° 0 mm 2 mps 738 mmHg 58%
    17:00 +22°C° 0 mm 1 mps 738 mmHg 63%
    18:00 +20°C° 0 mm 1 mps 739 mmHg 69%
    19:00 +19°C° 0 mm 1 mps 739 mmHg 74%
    20:00 +19°C° 0 mm 1 mps 739 mmHg 73%
    21:00 +18°C° 0 mm 1 mps 739 mmHg 73%
    22:00 +18°C° 0 mm 1 mps 739 mmHg 73%
    23:00 +18°C° 0 mm 1 mps 739 mmHg 73%

    Mañana, 18 Octubre, Viernes

    Tiempo Temperatura Precipitaciones Viento Presión Humedad
    00:00 +18°C° 0 mm 1 mps 739 mmHg 73%
    01:00 +18°C° 0 mm 1 mps 739 mmHg 73%
    02:00 +16°C° 0 mm 1 mps 739 mmHg 73%
    03:00 +16°C° 0 mm 1 mps 739 mmHg 73%
    04:00 +16°C° 0 mm 1 mps 738 mmHg 73%
    05:00 +16°C° 0 mm 1 mps 739 mmHg 72%
    06:00 +18°C° 0 mm 1 mps 739 mmHg 70%
    07:00 +18°C° 0 mm 1 mps 739 mmHg 69%
    08:00 +20°C° 0 mm 1 mps 739 mmHg 62%
    09:00 +22°C° 0 mm 1 mps 739 mmHg 55%
    10:00 +25°C° 0 mm 1 mps 739 mmHg 48%
    11:00 +25°C° 0 mm 1 mps 739 mmHg 47%
    12:00 +25°C° 0 mm 2 mps 738 mmHg 47%
    13:00 +26°C° 0 mm 2 mps 738 mmHg 46%
    14:00 +25°C° 0 mm 2 mps 738 mmHg 51%
    15:00 +24°C° 0 mm 2 mps 738 mmHg 56%
    16:00 +23°C° 0 mm 2 mps 738 mmHg 61%
    17:00 +21°C° 0 mm 1 mps 738 mmHg 68%
    18:00 +20°C° 0 mm 1 mps 738 mmHg 74%
    19:00 +16°C° 0 mm 0 mps 738 mmHg 80%
    20:00 +16°C° 0 mm 0 mps 738 mmHg 80%
    21:00 +16°C° 0 mm 0 mps 739 mmHg 80%
    22:00 +16°C° 0 mm 0 mps 739 mmHg 79%
    23:00 +16°C° 0 mm 1 mps 739 mmHg 79%

    Pasado mañana, 19 Octubre, Sábado

    Tiempo Temperatura Precipitaciones Viento Presión Humedad
    00:00 +16°C° 0 mm 1 mps 739 mmHg 79%
    01:00 +16°C° 0 mm 1 mps 739 mmHg 79%
    02:00 +16°C° 0 mm 1 mps 739 mmHg 78%
    03:00 +16°C° 0 mm 1 mps 739 mmHg 77%
    04:00 +15°C° 0 mm 1 mps 739 mmHg 76%
    05:00 +16°C° 0 mm 1 mps 739 mmHg 74%
    06:00 +16°C° 0 mm 1 mps 739 mmHg 72%
    07:00 +18°C° 0 mm 1 mps 739 mmHg 70%
    08:00 +20°C° 0 mm 1 mps 739 mmHg 63%
    09:00 +22°C° 0 mm 1 mps 739 mmHg 57%
    10:00 +24°C° 0 mm 1 mps 739 mmHg 50%
    11:00 +24°C° 0 mm 1 mps 739 mmHg 49%
    12:00 +25°C° 0 mm 2 mps 739 mmHg 48%
    13:00 +25°C° 0 mm 2 mps 739 mmHg 46%
    14:00 +24°C° 0 mm 2 mps 739 mmHg 52%
    15:00 +23°C° 0 mm 2 mps 738 mmHg 57%
    16:00 +22°C° 0 mm 1 mps 738 mmHg 62%
    17:00 +21°C° 0 mm 1 mps 739 mmHg 68%
    18:00 +19°C° 0 mm 1 mps 739 mmHg 74%
    19:00 +16°C° 0 mm 0 mps 739 mmHg 81%
    20:00 +18°C° 0 mm 1 mps 739 mmHg 80%
    21:00 +18°C° 0 mm 1 mps 740 mmHg 79%
    22:00 +16°C° 0 mm 1 mps 740 mmHg 79%
    23:00 +16°C° 0 mm 1 mps 740 mmHg 78%

    20 Octubre, Domingo

    Tiempo Temperatura Precipitaciones Viento Presión Humedad
    00:00 +16°C° 0 mm 1 mps 740 mmHg 78%
    01:00 +16°C° 0 mm 1 mps 740 mmHg 78%
    02:00 +16°C° 0 mm 1 mps 740 mmHg 77%
    03:00 +15°C° 0 mm 1 mps 740 mmHg 76%
    04:00 +15°C° 0 mm 1 mps 740 mmHg 75%
    05:00 +16°C° 0 mm 1 mps 740 mmHg 73%
    06:00 +16°C° 0 mm 1 mps 740 mmHg 71%
    07:00 +18°C° 0 mm 1 mps 740 mmHg 69%
    08:00 +20°C° 0 mm 1 mps 740 mmHg 62%
    09:00 +22°C° 0 mm 1 mps 741 mmHg 55%
    10:00 +24°C° 0 mm 1 mps 741 mmHg 47%
    11:00 +25°C° 0 mm 1 mps 741 mmHg 46%
    12:00 +25°C° 0 mm 1 mps 740 mmHg 45%
    13:00 +26°C° 0 mm 2 mps 740 mmHg 43%
    14:00 +25°C° 0 mm 2 mps 740 mmHg 48%
    15:00 +24°C° 0 mm 1 mps 740 mmHg 53%
    16:00 +23°C° 0 mm 1 mps 740 mmHg 58%
    17:00 +21°C° 0 mm 1 mps 740 mmHg 63%
    18:00 +20°C° 0 mm 1 mps 740 mmHg 67%
    19:00 +16°C° 0 mm 0 mps 740 mmHg 72%
    20:00 +18°C° 0 mm 1 mps 741 mmHg 71%
    21:00 +18°C° 0 mm 1 mps 741 mmHg 70%
    22:00 +18°C° 0 mm 1 mps 741 mmHg 69%
    23:00 +18°C° 0 mm 1 mps 741 mmHg 69%

    21 Octubre, Lunes

    Tiempo Temperatura Precipitaciones Viento Presión Humedad
    00:00 +16°C° 0 mm 1 mps 741 mmHg 68%
    01:00 +16°C° 0 mm 1 mps 741 mmHg 67%
    02:00 +16°C° 0 mm 1 mps 741 mmHg 66%
    03:00 +16°C° 0 mm 1 mps 741 mmHg 65%
    04:00 +16°C° 0 mm 1 mps 741 mmHg 64%
    05:00 +16°C° 0 mm 1 mps 741 mmHg 62%
    06:00 +16°C° 0 mm 1 mps 741 mmHg 60%
    07:00 +18°C° 0 mm 1 mps 741 mmHg 57%
    08:00 +20°C° 0 mm 1 mps 741 mmHg 50%
    09:00 +23°C° 0 mm 1 mps 741 mmHg 43%
    10:00 +25°C° 0 mm 1 mps 741 mmHg 35%
    11:00 +26°C° 0 mm 1 mps 741 mmHg 34%
    12:00 +26°C° 0 mm 1 mps 741 mmHg 32%
    13:00 +27°C° 0 mm 2 mps 740 mmHg 30%
    14:00 +26°C° 0 mm 2 mps 740 mmHg 36%
    15:00 +25°C° 0 mm 1 mps 740 mmHg 41%
    16:00 +24°C° 0 mm 1 mps 740 mmHg 47%
    17:00 +22°C° 0 mm 1 mps 740 mmHg 49%
    18:00 +21°C° 0 mm 1 mps 740 mmHg 51%
    19:00 +19°C° 0 mm 1 mps 740 mmHg 54%
    20:00 +19°C° 0 mm 1 mps 740 mmHg 52%
    21:00 +19°C° 0 mm 1 mps 740 mmHg 51%
    22:00 +19°C° 0 mm 1 mps 741 mmHg 50%
    23:00 +18°C° 0 mm 1 mps 740 mmHg 50%

    22 Octubre, Martes

    Tiempo Temperatura Precipitaciones Viento Presión Humedad
    00:00 +18°C° 0 mm 1 mps 740 mmHg 50%
    01:00 +18°C° 0 mm 1 mps 740 mmHg 50%
    02:00 +18°C° 0 mm 1 mps 740 mmHg 50%
    03:00 +18°C° 0 mm 1 mps 740 mmHg 51%
    04:00 +16°C° 0 mm 1 mps 740 mmHg 52%
    05:00 +17°C° 0 mm 2 mps 740 mmHg 52%
    06:00 +17°C° 0 mm 2 mps 740 mmHg 52%
    07:00 +17°C° 0 mm 2 mps 740 mmHg 52%
    08:00 +21°C° 0 mm 1 mps 740 mmHg 46%
    09:00 +24°C° 0 mm 1 mps 741 mmHg 40%
    10:00 +26°C° 0 mm 1 mps 741 mmHg 34%
    11:00 +27°C° 0 mm 1 mps 741 mmHg 33%
    12:00 +28°C° 0 mm 2 mps 740 mmHg 31%
    13:00 +29°C° 0 mm 2 mps 740 mmHg 30%
    14:00 +27°C° 0 mm 2 mps 740 mmHg 35%
    15:00 +26°C° 0 mm 2 mps 740 mmHg 41%
    16:00 +25°C° 0 mm 1 mps 739 mmHg 46%
    17:00 +23°C° 0 mm 1 mps 740 mmHg 47%
    18:00 +22°C° 0 mm 1 mps 740 mmHg 49%
    19:00 +20°C° 0 mm 1 mps 740 mmHg 50%
    20:00 +19°C° 0 mm 2 mps 740 mmHg 50%
    21:00 +19°C° 0 mm 2 mps 740 mmHg 49%
    22:00 +19°C° 0 mm 2 mps 740 mmHg 49%
    23:00 +18°C° 0 mm 2 mps 740 mmHg 49%
    Mostrar más